{"data":{"norad_id":58304,"epoch":"2026-05-25T04:22:45.592032Z","epoch_age_seconds":69566,"freshness":"FRESH","line1":"1 58304U 23174BA  26145.18247213  .00030966  00000+0  47834-3 0  9995","line2":"2 58304  97.3926 236.1516 0005665 201.9446 158.1566 15.54045089142189","mean_motion":15.54045089,"eccentricity":0.0005665,"inclination_deg":97.3926,"raan_deg":236.1516,"arg_perigee_deg":201.9446,"mean_anomaly_deg":158.1566,"bstar":0.00047834,"rev_number":14218,"period_min":92.661404111937,"perigee_km":401.08725169318,"apogee_km":408.7724664445,"semimajor_km":6783.0668590688,"source":"CELESTRAK","updated_at":"2026-05-25T13:38:13.299883Z"}}